This is the latest recevied weather packets stored in our database for station/object N1KM-15. If no packets are shown the sender has not sent any weather packets the latest 10 day(s).
| Time | Temp. | Humidity | Pressure | Rain* | Wind** | Luminosity | Snow |
|---|---|---|---|---|---|---|---|
| 1777648500 | 12.78° C | 57% | 1007.7 hPa | 0 mm | - | - | - |
| 1777647600 | 12.22° C | 61% | 1008.3 hPa | 0 mm | - | - | - |
| 1777646700 | 13.33° C | 57% | 1008.6 hPa | 0 mm | - | - | - |
| 1777645801 | 13.89° C | 53% | 1007.5 hPa | 0 mm | - | - | - |
| 1777644900 | 13.33° C | 58% | 1008.2 hPa | 0 mm | - | - | - |
| 1777644000 | 12.22° C | 60% | 1007.9 hPa | 0 mm | - | - | - |
| 1777643100 | 12.22° C | 61% | 1008.2 hPa | 0 mm | - | - | - |
| 1777642200 | 12.22° C | 60% | 1008 hPa | 0 mm | - | - | - |
| 1777641300 | 12.22° C | 61% | 1007.7 hPa | 0 mm | - | - | - |
| 1777640400 | 11.67° C | 65% | 1007.7 hPa | 0 mm | - | - | - |
| 1777639500 | 10.56° C | 64% | 1008.1 hPa | 0 mm | - | - | - |
| 1777638600 | 10.56° C | 69% | 1008.2 hPa | 0 mm | - | - | - |
| 1777637700 | 10° C | 72% | 1008.1 hPa | 0 mm | - | - | - |
| 1777636800 | 10° C | 73% | 1008 hPa | 0 mm | - | - | - |
| 1777635900 | 9.44° C | 72% | 1008 hPa | 0 mm | - | - | - |
| 1777635000 | 9.44° C | 76% | 1007.7 hPa | 0 mm | - | - | - |
| 1777634100 | 8.89° C | 78% | 1007.8 hPa | 0 mm | - | - | - |
| 1777633200 | 8.89° C | 79% | 1007.7 hPa | 0 mm | - | - | - |
| 1777632300 | 8.89° C | 82% | 1007.6 hPa | 0 mm | - | - | - |
| 1777631400 | 8.89° C | 86% | 1007.4 hPa | 0 mm | - | - | - |
| 1777630500 | 8.89° C | 86% | 1007.3 hPa | 0 mm | - | - | - |
| 1777629600 | 8.33° C | 85% | 1007.2 hPa | 0 mm | - | - | - |
| 1777628700 | 8.33° C | 85% | 1007.1 hPa | 0 mm | - | - | - |
| 1777627800 | 8.33° C | 85% | 1007.1 hPa | 0 mm | - | - | - |
| 1777626900 | 8.33° C | 86% | 1007 hPa | 0 mm | - | - | - |
* Rain since midnight (hover to see other rain measurements)
** Current wind speed in m/s (hover to see current wind gust speed)